• In Belarus
  • List of Countries
  • For 7 days
  • Water Temperature
  • Satellite Maps
  • Weather Map
  • Weather Widgets
  • user-avatar
    Login

    Hourly Weather Satif

    Today, 16 July, Monday

    Time Temperature Precipitation Wind Pressure Humidity
    00:00 +31°C° 0 mm 1 mps 675 mmHg 28%
    01:00 +30°C° 0 mm 2 mps 675 mmHg 30%
    02:00 +30°C° 0 mm 2 mps 675 mmHg 32%
    03:00 +30°C° 0 mm 2 mps 674 mmHg 34%
    04:00 +29°C° 0 mm 2 mps 675 mmHg 37%
    05:00 +28°C° 0 mm 2 mps 675 mmHg 41%
    06:00 +28°C° 0 mm 2 mps 675 mmHg 44%
    07:00 +29°C° 0 mm 2 mps 675 mmHg 38%
    08:00 +30°C° 0 mm 2 mps 676 mmHg 33%
    09:00 +31°C° 0 mm 2 mps 676 mmHg 28%
    10:00 +33°C° 0 mm 3 mps 677 mmHg 26%
    11:00 +35°C° 0 mm 4 mps 677 mmHg 24%
    12:00 +36°C° 0 mm 6 mps 677 mmHg 21%
    13:00 +36°C° 0 mm 6 mps 677 mmHg 22%
    14:00 +36°C° 0 mm 6 mps 676 mmHg 23%
    15:00 +35°C° 0 mm 7 mps 676 mmHg 24%
    16:00 +34°C° 0 mm 6 mps 676 mmHg 28%
    17:00 +32°C° 0 mm 6 mps 676 mmHg 32%
    18:00 +30°C° 0 mm 5 mps 675 mmHg 37%
    19:00 +28°C° 0 mm 4 mps 675 mmHg 41%
    20:00 +27°C° 0 mm 3 mps 675 mmHg 46%
    21:00 +25°C° 0 mm 2 mps 676 mmHg 50%
    22:00 +25°C° 0 mm 2 mps 675 mmHg 50%
    23:00 +24°C° 0 mm 2 mps 675 mmHg 50%

    Tomorrow, 17 July, Tuesday

    Time Temperature Precipitation Wind Pressure Humidity
    00:00 +24°C° 0 mm 2 mps 675 mmHg 50%
    01:00 +23°C° 0 mm 2 mps 675 mmHg 50%
    02:00 +23°C° 0 mm 2 mps 675 mmHg 49%
    03:00 +21°C° 0 mm 2 mps 674 mmHg 49%
    04:00 +23°C° 0 mm 2 mps 674 mmHg 46%
    05:00 +23°C° 0 mm 2 mps 674 mmHg 44%
    06:00 +23°C° 0 mm 2 mps 675 mmHg 41%
    07:00 +25°C° 0 mm 2 mps 675 mmHg 35%
    08:00 +26°C° 0 mm 2 mps 676 mmHg 29%
    09:00 +28°C° 0 mm 2 mps 676 mmHg 24%
    10:00 +30°C° 0 mm 2 mps 677 mmHg 21%
    11:00 +31°C° 0 mm 2 mps 677 mmHg 18%
    12:00 +34°C° 0 mm 2 mps 677 mmHg 16%
    13:00 +34°C° 0 mm 2 mps 677 mmHg 16%
    14:00 +35°C° 0 mm 2 mps 676 mmHg 16%
    15:00 +36°C° 0 mm 3 mps 676 mmHg 17%
    16:00 +35°C° 0 mm 3 mps 676 mmHg 20%
    17:00 +34°C° 0 mm 3 mps 676 mmHg 22%
    18:00 +33°C° 0 mm 3 mps 675 mmHg 25%
    19:00 +31°C° 0 mm 3 mps 675 mmHg 29%
    20:00 +30°C° 0 mm 2 mps 675 mmHg 32%
    21:00 +29°C° 0 mm 2 mps 675 mmHg 36%
    22:00 +28°C° 0 mm 2 mps 675 mmHg 37%
    23:00 +28°C° 0 mm 2 mps 675 mmHg 37%

    Day after tomorrow, 18 July, Wednesday

    Time Temperature Precipitation Wind Pressure Humidity
    00:00 +27°C° 0 mm 1 mps 674 mmHg 38%
    01:00 +27°C° 0 mm 2 mps 674 mmHg 37%
    02:00 +27°C° 0 mm 2 mps 674 mmHg 36%
    03:00 +27°C° 0 mm 2 mps 674 mmHg 36%
    04:00 +27°C° 0 mm 2 mps 674 mmHg 35%
    05:00 +28°C° 0 mm 2 mps 674 mmHg 34%
    06:00 +28°C° 0 mm 3 mps 674 mmHg 33%
    07:00 +30°C° 0 mm 3 mps 675 mmHg 30%
    08:00 +33°C° 0 mm 4 mps 675 mmHg 26%
    09:00 +35°C° 0 mm 4 mps 676 mmHg 22%
    10:00 +36°C° 0 mm 5 mps 676 mmHg 20%
    11:00 +38°C° 0 mm 6 mps 676 mmHg 18%
    12:00 +40°C° 0 mm 7 mps 676 mmHg 16%
    13:00 +40°C° 0 mm 6 mps 676 mmHg 15%
    14:00 +40°C° 0 mm 6 mps 675 mmHg 15%
    15:00 +40°C° 0 mm 5 mps 675 mmHg 15%
    16:00 +40°C° 0 mm 5 mps 675 mmHg 17%
    17:00 +38°C° 0 mm 4 mps 675 mmHg 18%
    18:00 +37°C° 0 mm 3 mps 674 mmHg 20%
    19:00 +35°C° 0 mm 2 mps 674 mmHg 24%
    20:00 +33°C° 0 mm 1 mps 675 mmHg 27%
    21:00 +29°C° 0 mm 0 mps 675 mmHg 31%
    22:00 +31°C° 0 mm 1 mps 674 mmHg 32%
    23:00 +30°C° 0 mm 1 mps 674 mmHg 34%

    19 July, Thursday

    Time Temperature Precipitation Wind Pressure Humidity
    00:00 +29°C° 0 mm 1 mps 674 mmHg 35%
    01:00 +29°C° 0 mm 1 mps 673 mmHg 36%
    02:00 +26°C° 0 mm 0 mps 673 mmHg 37%
    03:00 +26°C° 0 mm 0 mps 673 mmHg 39%
    04:00 +28°C° 0 mm 1 mps 673 mmHg 38%
    05:00 +29°C° 0 mm 1 mps 673 mmHg 37%
    06:00 +29°C° 0 mm 1 mps 674 mmHg 36%
    07:00 +31°C° 0 mm 1 mps 674 mmHg 32%
    08:00 +32°C° 0 mm 1 mps 675 mmHg 29%
    09:00 +34°C° 0 mm 1 mps 675 mmHg 25%
    10:00 +36°C° 0 mm 2 mps 675 mmHg 23%
    11:00 +37°C° 0 mm 2 mps 675 mmHg 21%
    12:00 +37°C° 0 mm 2 mps 675 mmHg 19%
    13:00 +38°C° 0 mm 2 mps 675 mmHg 19%
    14:00 +38°C° 0 mm 3 mps 675 mmHg 18%
    15:00 +39°C° 0 mm 3 mps 675 mmHg 18%
    16:00 +38°C° 0 mm 3 mps 675 mmHg 22%
    17:00 +36°C° 0 mm 3 mps 675 mmHg 25%
    18:00 +35°C° 0 mm 3 mps 674 mmHg 28%
    19:00 +34°C° 0 mm 3 mps 674 mmHg 31%
    20:00 +32°C° 0 mm 2 mps 674 mmHg 34%
    21:00 +31°C° 0 mm 2 mps 674 mmHg 37%
    22:00 +30°C° 0 mm 2 mps 674 mmHg 37%
    23:00 +30°C° 0 mm 2 mps 674 mmHg 36%

    20 July, Friday

    Time Temperature Precipitation Wind Pressure Humidity
    00:00 +30°C° 0 mm 2 mps 674 mmHg 35%
    01:00 +30°C° 0 mm 2 mps 673 mmHg 35%
    02:00 +29°C° 0 mm 2 mps 673 mmHg 36%
    03:00 +29°C° 0 mm 2 mps 673 mmHg 37%
    04:00 +29°C° 0 mm 2 mps 673 mmHg 37%
    05:00 +29°C° 0 mm 2 mps 673 mmHg 37%
    06:00 +29°C° 0 mm 2 mps 673 mmHg 37%
    07:00 +30°C° 0 mm 2 mps 674 mmHg 31%
    08:00 +32°C° 0 mm 2 mps 675 mmHg 26%
    09:00 +34°C° 0 mm 1 mps 675 mmHg 20%
    10:00 +36°C° 0 mm 2 mps 675 mmHg 19%
    11:00 +37°C° 0 mm 2 mps 675 mmHg 19%
    12:00 +37°C° 0 mm 2 mps 675 mmHg 18%
    13:00 +37°C° 0 mm 3 mps 675 mmHg 19%
    14:00 +37°C° 0 mm 4 mps 675 mmHg 19%
    15:00 +38°C° 0 mm 4 mps 675 mmHg 19%
    16:00 +36°C° 0 mm 4 mps 675 mmHg 22%
    17:00 +35°C° 0 mm 4 mps 675 mmHg 26%
    18:00 +33°C° 0 mm 4 mps 675 mmHg 29%
    19:00 +32°C° 0 mm 4 mps 675 mmHg 32%
    20:00 +30°C° 0 mm 3 mps 675 mmHg 34%
    21:00 +29°C° 0 mm 2 mps 675 mmHg 37%
    22:00 +28°C° 0 mm 2 mps 675 mmHg 38%
    23:00 +27°C° 0 mm 2 mps 675 mmHg 39%

    21 July, Saturday

    Time Temperature Precipitation Wind Pressure Humidity
    00:00 +26°C° 0 mm 2 mps 675 mmHg 40%
    01:00 +26°C° 0 mm 2 mps 675 mmHg 41%
    02:00 +25°C° 0 mm 2 mps 675 mmHg 43%
    03:00 +25°C° 0 mm 2 mps 674 mmHg 44%
    04:00 +25°C° 0 mm 2 mps 675 mmHg 43%
    05:00 +25°C° 0 mm 2 mps 675 mmHg 41%
    06:00 +25°C° 0 mm 2 mps 675 mmHg 40%
    07:00 +26°C° 0 mm 2 mps 675 mmHg 36%
    08:00 +27°C° 0 mm 2 mps 676 mmHg 32%
    09:00 +29°C° 0 mm 2 mps 676 mmHg 28%
    10:00 +30°C° 0 mm 2 mps 676 mmHg 26%
    11:00 +31°C° 0 mm 3 mps 677 mmHg 24%
    12:00 +33°C° 0 mm 3 mps 677 mmHg 22%
    13:00 +34°C° 0 mm 3 mps 677 mmHg 23%
    14:00 +34°C° 0 mm 4 mps 676 mmHg 23%
    15:00 +35°C° 0 mm 4 mps 676 mmHg 24%
    16:00 +34°C° 0 mm 4 mps 676 mmHg 27%
    17:00 +33°C° 0 mm 4 mps 676 mmHg 31%
    18:00 +32°C° 0 mm 4 mps 676 mmHg 35%
    19:00 +29°C° 0 mm 3 mps 676 mmHg 40%
    20:00 +28°C° 0 mm 3 mps 676 mmHg 45%
    21:00 +27°C° 0 mm 2 mps 676 mmHg 50%
    22:00 +26°C° 0 mm 2 mps 676 mmHg 52%
    23:00 +26°C° 0 mm 2 mps 675 mmHg 53%
    Show more